Find Starlink 32653

NORAD ID: 62199 Int'l Des: 2024-229 Owner: SPXS Country: US Constellation: starlink operational
LEOCIRCULAR

リアルタイム位置

3D地球を読み込み中...

Starlink 32653について

説明を読み込み中...

次回通過

Passes for default location (London). Set your location on the main map for personalized predictions.

高度履歴

Loading altitude history...

軌道要素

1 62199U 24229H 26121.60906656 .00027125 00000-0 99101-3 0 9996
2 62199 43.0014 324.9777 0001301 264.6549 95.4154 15.27599944 78739
Epoch: May 1, 2026 • Age: 9 hours

現在のステータス

高度 486.8 km
速度 7.62 km/s
衛星直下点 -19.64°S, 81.93°E
打ち上げ日 Dec 4, 2024
運用期間 1.4 years
タイプ internet

技術仕様

分類 Payload
質量 730.00 kg
乾燥質量 700.00 kg
総質量 730.00 kg
長さ 0.30 m
直径 4.10 m
スパン 29.00 m
形状 Box + pan
製造者 SPXS
バスタイプ Starlink V2M
フェーズステータス In Orbit
所有者/国 SPXS/US

Most Searched